GFSGL_sfc_rhum_057.txt.gz
RH
96 96 97 95 92 96 96 95 93 92 92 92 93 94 94 94 94 94 94 95 96 97 97 97 98 98 99 99 98 98 98 98 97 100 100 99 99 98 94 90 95 98 95
96 96 96 94 95 92 94 94 93 93 92 93 93 95 95 94 93 93 94 95 95 96 96 97 98 95 99 99 99 98 98 97 93 97 99 100 99 98 96 92 87 90 96
96 96 96 96 96 92 90 92 92 92 93 93 93 96 94 93 94 95 94 95 95 96 96 97 97 97 99 99 99 99 98 92 90 96 99 100 100 99 99 95 94 93 88
97 96 97 95 96 93 91 91 92 91 92 92 93 94 95 94 94 90 92 95 95 95 97 97 97 97 98 98 99 97 90 91 92 94 97 100 99 99 98 98 95 92 97
96 96 96 94 95 92 90 89 90 91 90 92 94 91 93 93 87 91 90 94 94 94 95 96 98 93 91 93 97 99 93 91 91 96 99 100 99 99 98 94 93 94 96
95 95 95 95 95 95 91 88 90 94 92 94 90 84 87 83 94 91 91 94 92 93 94 94 94 94 95 93 92 91 94 97 96 95 98 97 97 96 97 98 98 98 98
92 92 94 95 97 97 97 98 99 98 99 94 86 83 87 92 94 95 93 95 94 94 92 86 78 82 94 97 93 91 90 88 89 96 98 97 97 97 98 98 97 97 98
91 89 91 96 97 98 99 99 99 99 99 99 94 85 86 90 93 94 92 95 96 95 90 81 85 87 88 89 93 95 95 95 95 93 94 96 95 97 95 95 96 96 98
91 92 96 97 99 98 98 99 99 99 100 100 97 92 80 90 91 95 91 93 95 94 89 80 79 78 77 72 67 61 56 63 81 82 79 76 77 83 90 88 98 98 98
96 95 96 97 97 98 97 97 99 98 99 100 99 98 88 79 91 97 94 95 95 97 94 90 79 71 81 69 46 47 49 60 64 67 72 78 82 85 77 76 80 89 97
96 97 96 96 96 96 97 97 97 98 99 99 99 99 98 92 83 94 97 93 88 94 91 85 78 81 86 75 67 67 66 72 76 75 79 84 86 88 85 85 86 95 93
96 95 96 96 96 98 98 99 98 98 97 99 99 99 99 97 87 92 94 94 94 89 89 83 71 79 77 89 83 78 85 82 91 90 93 91 89 85 87 87 85 81 76
98 99 99 99 99 99 99 99 99 98 99 99 99 99 99 99 97 91 93 93 96 89 88 86 76 78 72 78 70 84 85 73 83 89 93 97 97 90 90 86 84 87 87
98 99 98 99 99 98 99 100 100 100 100 99 99 99 99 100 100 98 94 93 96 91 93 86 70 66 66 65 69 73 68 77 88 83 89 89 87 84 79 76 66 76 70
97 98 98 98 99 98 99 100 100 99 100 100 100 99 99 99 99 99 99 97 86 89 89 70 60 57 59 67 78 67 77 74 73 74 72 72 76 78 77 77 77 84 62
96 98 98 98 99 99 100 99 99 100 100 100 100 100 99 100 100 100 100 100 93 83 67 64 58 55 55 61 75 78 79 76 74 72 71 73 72 73 67 72 80 66 64
96 96 97 99 99 99 99 99 98 98 100 100 99 98 100 100 100 100 100 100 94 81 72 66 63 58 52 63 72 80 75 78 75 73 68 68 69 64 63 65 73 69 73
94 96 97 97 98 98 99 99 99 96 95 94 100 97 97 100 100 100 100 100 96 83 74 70 70 63 59 59 72 79 84 77 77 76 75 68 71 68 66 70 75 72 75
96 97 97 98 98 98 98 98 99 96 96 96 95 97 95 97 97 100 100 98 97 91 79 70 68 67 70 63 58 73 77 80 72 73 77 72 69 70 66 67 72 77 76
97 97 98 98 98 98 98 98 99 99 99 99 99 99 98 95 92 93 92 96 93 95 97 96 87 70 69 73 79 79 81 83 74 64 62 67 72 75 67 69 75 71 74
99 99 98 98 98 98 98 98 98 98 99 99 98 88 94 90 93 97 92 83 83 78 79 86 93 93 82 74 73 86 78 72 66 59 62 67 74 78 75 72 69 67 69
97 98 99 98 98 98 98 98 98 98 98 98 98 99 98 96 98 96 89 82 78 77 70 71 75 81 82 71 72 73 73 69 63 62 61 63 68 68 71 73 73 67 70
96 96 96 98 98 99 98 98 97 92 82 81 91 99 100 98 98 97 85 81 85 82 78 83 79 75 73 69 70 73 65 61 59 60 61 61 65 67 75 75 67 64 66
94 94 96 97 98 98 98 98 96 90 80 78 79 97 99 95 96 97 93 90 83 78 87 83 78 73 72 72 67 65 61 56 58 57 58 60 64 73 67 66 63 64 62
97 97 98 99 98 96 95 97 95 89 84 86 86 88 93 95 93 95 93 89 77 74 73 78 78 77 69 66 68 69 77 88 69 80 74 71 71 70 64 59 55 53 49
98 99 99 98 99 99 98 98 94 94 93 97 95 97 97 96 98 95 97 91 90 91 91 93 65 53 52 54 54 73 83 83 72 74 63 63 65 63 56 52 53 55 48

GFSGL_sfc_rhum_060.txt.gz
RH
96 95 96 95 91 94 93 93 92 90 89 88 89 90 89 89 89 91 91 90 91 92 92 93 95 95 98 98 97 97 97 98 97 100 100 99 98 97 92 90 86 84 78
95 95 96 93 93 93 91 91 90 89 89 88 89 91 90 88 89 89 88 88 89 90 91 92 93 88 97 96 92 97 98 97 95 98 99 100 99 96 91 90 80 77 75
94 95 96 92 94 93 90 90 89 87 87 90 89 92 89 88 88 88 87 88 89 90 92 91 92 92 97 96 94 94 96 94 93 97 99 100 100 98 96 86 92 87 72
93 93 96 95 93 90 90 90 89 88 89 88 88 90 88 87 86 83 86 89 89 90 92 92 90 90 93 97 94 94 91 90 91 92 96 100 99 98 98 94 95 87 88
94 94 95 92 92 90 89 90 89 89 88 88 88 89 89 87 73 83 85 87 89 90 91 93 92 89 91 91 90 95 93 90 90 95 99 100 99 99 99 98 95 88 93
93 93 94 94 93 94 91 92 90 94 93 90 89 86 88 82 92 90 85 84 85 86 90 90 89 91 91 93 92 91 91 94 94 93 96 95 97 95 96 94 93 90 91
92 92 93 94 94 96 96 97 97 98 98 97 94 84 85 87 96 94 88 82 83 84 84 84 80 82 89 88 92 91 89 88 89 89 96 96 96 94 96 97 92 92 91
92 91 93 94 95 97 98 98 98 98 99 98 98 90 84 85 94 97 94 86 88 87 80 78 85 87 88 87 88 88 88 86 86 76 86 86 84 86 85 83 90 93 92
92 91 91 93 97 97 97 99 99 99 99 99 99 99 95 85 94 98 94 90 88 89 79 73 77 80 82 89 84 82 79 75 80 90 90 88 93 95 86 79 86 88 94
92 91 93 97 98 98 98 99 98 98 98 99 99 99 98 92 93 98 88 80 89 84 85 79 78 76 79 76 75 71 75 67 64 70 70 75 79 80 87 79 79 80 83
95 96 97 96 97 96 97 97 96 98 98 99 99 99 98 98 92 97 97 82 77 82 78 77 71 84 84 74 69 65 67 68 67 68 66 66 68 66 62 66 73 68 69
97 96 95 94 94 97 97 98 98 98 99 99 99 100 100 99 99 97 98 94 89 78 78 75 74 83 88 81 74 77 82 75 63 63 63 65 63 63 65 65 73 70 64
95 99 97 99 98 97 98 99 100 99 99 99 98 99 99 99 100 100 97 97 97 86 80 81 82 82 82 87 87 88 86 67 66 68 67 68 69 67 74 74 73 79 79
98 96 98 98 98 97 99 99 99 99 100 99 98 99 98 99 100 100 98 98 98 97 92 85 82 74 73 68 67 74 74 71 71 71 71 69 74 77 71 66 60 65 64
97 97 98 98 98 97 98 99 100 98 100 100 100 100 100 99 98 100 100 98 97 99 93 80 80 70 60 62 65 61 62 67 69 69 68 65 66 68 72 64 59 61 55
96 98 97 97 97 97 97 95 100 100 100 100 100 100 99 100 100 100 100 100 100 100 95 88 81 66 59 55 61 65 61 68 64 65 67 67 67 65 64 61 60 58 56
96 96 96 99 98 97 96 95 92 96 100 100 100 100 100 100 100 100 100 100 100 100 92 95 93 86 75 58 55 63 60 63 74 65 63 63 61 62 62 58 59 58 55
92 98 92 92 92 93 93 92 91 92 89 84 98 99 99 100 100 100 100 100 100 100 87 88 91 78 66 61 57 56 64 68 68 66 64 60 60 57 57 55 56 58 55
92 91 90 90 91 92 91 90 88 90 90 88 85 94 95 98 99 100 100 99 98 99 97 92 85 80 75 68 63 64 64 67 64 66 64 62 60 59 56 51 50 67 65
93 96 96 92 90 90 90 89 89 90 91 91 90 86 84 90 84 88 94 97 99 98 98 97 96 97 98 96 92 78 63 68 68 64 62 62 60 56 53 53 50 50 54
92 95 99 97 95 92 89 88 88 90 88 86 85 82 99 83 80 84 87 84 86 94 92 96 97 97 97 98 97 96 81 70 62 60 61 62 63 56 58 55 51 52 47
88 89 92 92 93 96 94 91 91 90 92 92 93 93 100 88 86 84 81 83 86 78 80 78 77 76 78 80 89 91 91 78 64 69 64 65 66 61 53 56 53 56 57
87 88 86 86 90 97 95 94 94 90 84 81 69 71 77 89 91 90 88 85 79 74 72 72 70 68 69 71 69 72 68 66 70 72 67 66 64 61 61 61 59 55 59
93 90 88 94 94 92 92 93 93 95 78 66 66 74 75 81 90 88 84 84 80 77 74 72 73 72 72 71 68 69 72 80 82 77 77 69 65 66 60 62 59 58 56
96 95 94 93 93 95 95 92 89 84 78 76 77 81 77 74 76 79 85 80 73 75 78 68 61 74 75 74 76 71 80 93 81 79 82 84 84 81 80 75 71 65 64
95 95 97 97 96 96 95 94 90 90 93 91 90 91 89 89 92 94 89 85 86 92 92 90 95 89 64 56 61 80 87 90 82 90 80 82 85 85 84 85 81 84 79

GFSGL_sfc_rhum_063.txt.gz
RH
82 81 80 77 74 76 76 77 76 76 77 75 74 75 72 72 73 76 78 76 76 79 80 83 84 86 90 97 86 85 86 96 97 99 99 98 97 93 88 84 73 65 68
78 80 78 75 73 73 74 74 74 76 75 74 74 76 74 71 73 74 73 71 72 75 76 80 79 72 89 91 95 92 90 96 97 99 99 99 97 91 85 83 71 58 57
74 75 76 72 72 75 74 73 73 73 72 71 74 76 74 71 71 71 72 71 73 74 76 75 76 79 88 85 84 87 95 96 96 97 100 99 98 95 89 79 80 84 63
69 69 75 71 71 71 73 73 73 73 72 73 73 74 74 70 70 66 67 73 74 73 77 73 72 75 84 91 84 87 87 89 92 97 99 99 97 96 95 82 76 66 71
72 71 73 72 72 73 73 72 71 73 71 73 78 73 72 69 58 63 68 72 75 76 79 72 74 80 88 87 80 84 87 85 88 97 99 99 98 98 95 88 85 80 79
71 72 75 76 75 76 74 74 75 80 80 79 87 77 73 59 91 87 73 67 72 74 78 75 75 83 86 92 92 90 86 88 89 89 91 94 96 90 89 96 89 86 65
73 72 76 78 79 80 79 80 79 84 87 85 85 88 86 73 92 91 83 61 64 66 74 74 62 62 76 73 90 90 89 89 87 82 84 82 88 86 90 95 84 74 61
76 74 76 78 79 81 83 85 85 84 87 89 96 92 89 83 97 95 89 68 68 68 64 67 73 74 75 73 73 74 74 74 79 69 81 82 81 80 81 78 84 81 72
75 75 75 77 78 82 89 92 89 92 94 94 95 96 97 93 95 98 91 72 70 72 67 64 68 74 92 92 70 75 75 70 87 92 92 92 91 86 75 63 69 65 74
74 74 73 77 81 90 91 92 92 91 92 97 96 92 99 97 99 98 91 64 72 65 74 70 77 74 86 89 70 71 74 72 65 70 68 78 83 85 93 71 60 60 61
74 76 79 81 85 83 86 86 84 86 88 88 90 92 98 98 98 99 98 69 61 65 63 64 52 84 83 81 82 67 68 69 68 62 53 50 54 64 62 64 64 56 50
84 84 83 85 79 80 84 90 89 86 88 90 91 94 98 98 100 100 100 98 84 71 70 64 60 87 87 78 64 67 79 69 41 38 37 38 37 37 39 46 59 56 51
86 91 92 90 88 86 90 94 96 89 80 86 90 76 81 95 96 100 99 100 99 82 68 69 81 88 88 83 79 84 85 41 39 41 41 40 40 38 50 58 61 67 64
92 92 87 87 88 83 76 73 74 94 97 94 94 94 93 89 93 97 99 100 99 92 90 75 74 74 75 65 72 68 50 49 44 42 41 39 43 52 51 43 43 45 42
94 89 86 85 87 80 80 79 79 81 86 87 92 98 100 98 97 100 100 98 96 95 97 87 80 70 63 58 55 54 58 61 61 56 54 52 54 54 55 52 45 42 41
87 79 70 67 66 66 70 65 98 96 100 100 100 98 90 99 100 100 100 100 100 100 100 93 89 77 70 62 61 55 50 54 51 55 58 56 51 51 53 57 55 49 42
81 75 69 72 62 64 63 61 59 74 99 100 100 100 100 99 100 100 100 100 100 100 99 99 98 94 87 86 76 60 56 47 61 50 49 50 53 51 54 50 49 45 42
73 94 61 58 56 57 60 58 55 59 59 56 89 92 99 100 100 100 100 100 100 100 99 98 98 97 93 95 81 69 60 58 63 56 43 42 44 44 45 43 41 42 38
67 60 59 58 58 63 58 57 54 57 58 58 57 78 88 98 99 100 100 94 96 98 98 97 97 98 97 91 84 82 74 78 83 83 65 48 40 40 40 37 35 53 49
71 89 86 64 59 61 58 58 56 59 59 55 53 50 53 67 54 53 65 76 92 94 94 96 95 96 98 98 98 99 99 98 98 95 72 56 43 38 36 37 34 34 38
53 56 87 70 66 63 61 62 66 68 63 56 53 57 100 56 47 45 48 51 59 66 76 86 93 92 93 95 94 98 96 97 97 96 94 78 56 44 44 36 33 33 33
58 56 60 56 54 60 60 61 63 63 63 62 63 63 100 44 46 51 53 55 57 59 59 64 60 60 59 57 69 80 79 82 83 89 88 85 82 74 55 49 42 39 36
58 67 62 61 63 75 60 61 63 62 59 56 50 46 44 46 50 53 55 54 58 60 59 60 58 50 45 48 51 55 53 55 57 65 82 91 90 67 69 76 74 63 46
78 68 66 80 79 67 60 70 64 76 57 56 54 52 51 51 50 55 55 56 56 57 60 54 51 51 52 52 53 52 51 57 56 62 73 85 90 94 92 94 93 77 57
89 91 92 89 90 88 77 65 62 64 61 60 61 63 61 62 63 63 63 61 62 65 90 91 86 80 84 78 66 65 84 94 83 91 83 90 91 91 93 92 88 86 85
89 91 91 86 88 89 87 85 80 77 76 80 75 77 84 84 83 90 85 79 77 78 82 85 90 93 93 92 89 96 97 98 92 99 93 90 93 94 94 94 93 95 93

GFSGL_sfc_rhum_069.txt.gz
RH
57 57 62 58 63 59 60 59 58 59 59 59 60 68 66 67 71 62 64 61 60 68 64 64 65 71 75 95 92 96 96 95 81 96 96 96 94 86 83 77 73 69 72
60 57 58 61 64 67 58 55 57 61 60 58 55 54 68 61 53 57 56 49 54 60 62 68 66 67 73 83 92 92 94 91 69 97 98 99 96 88 84 80 72 58 64
63 56 51 64 64 72 57 54 56 58 57 53 55 60 64 63 53 54 55 54 55 56 58 65 67 66 71 74 88 92 95 90 76 91 99 98 97 94 90 77 82 77 61
58 57 49 56 65 57 55 55 57 56 56 55 55 60 54 52 54 51 50 54 56 54 59 61 59 64 73 76 86 86 88 77 79 96 98 99 97 94 87 81 78 64 69
50 51 50 52 53 54 55 55 55 55 54 57 62 61 62 52 49 56 52 52 57 57 56 56 66 78 90 90 78 84 86 79 84 85 97 98 97 96 89 72 68 60 67
50 51 51 55 62 59 61 57 56 71 67 72 59 63 63 64 83 75 70 52 54 56 59 55 62 79 82 88 87 94 88 86 87 84 88 93 92 86 76 79 74 70 73
58 51 53 58 60 70 66 60 66 70 77 76 75 67 68 70 83 80 79 71 55 53 56 57 50 46 68 64 86 89 88 89 85 82 86 86 90 84 80 85 83 73 65
66 53 56 59 61 62 65 65 67 72 75 79 76 74 73 74 94 89 84 76 73 58 52 53 56 57 65 65 62 62 67 72 79 69 81 80 79 79 82 78 87 84 75
61 57 57 60 62 72 72 75 73 73 77 76 75 76 78 82 99 96 91 78 76 70 57 53 54 56 88 86 62 62 69 71 88 92 92 92 85 85 80 79 91 84 90
60 56 56 60 62 65 70 80 77 77 73 59 67 69 80 79 100 100 96 78 90 71 75 72 76 81 85 88 72 66 66 67 59 65 72 83 83 84 89 78 69 75 69
52 56 59 61 65 65 71 78 78 71 64 69 69 71 74 80 82 98 99 88 93 94 75 67 66 88 93 92 95 75 72 80 70 61 59 62 66 77 74 72 86 87 88
58 61 63 66 60 63 76 77 69 69 75 75 75 74 59 72 96 98 100 98 88 88 94 80 73 86 90 92 86 76 75 70 50 50 58 60 64 62 59 60 69 69 71
74 81 79 80 74 75 79 84 71 74 61 59 59 58 54 73 66 100 100 100 99 78 78 96 87 88 89 84 85 77 76 42 39 41 42 39 36 37 57 60 68 66 72
96 97 91 86 80 78 65 66 62 54 65 72 59 64 69 80 71 80 70 73 94 82 80 69 75 83 76 71 63 62 43 41 44 45 41 38 41 44 44 42 45 47 49
79 85 78 68 72 80 69 61 55 67 72 58 52 52 50 53 70 98 99 94 95 94 90 69 68 69 68 65 60 56 53 49 47 49 46 43 43 54 50 52 50 47 46
78 60 56 55 62 61 65 62 98 94 100 100 100 77 51 90 100 100 100 100 100 100 100 100 99 97 92 87 76 58 58 65 54 47 52 73 96 95 87 73 49 47 47
68 70 60 66 56 53 49 42 51 72 100 100 100 100 100 98 100 100 100 100 100 98 95 96 97 96 99 99 98 97 97 92 89 95 97 96 98 98 98 96 77 63 56
79 91 65 47 42 40 41 50 33 39 48 51 89 83 99 100 100 100 100 96 62 82 68 77 88 91 93 95 96 97 96 98 97 94 95 93 92 97 96 94 94 92 92
95 91 83 75 69 70 63 47 38 34 36 34 43 82 87 100 100 99 99 62 44 41 46 54 65 76 83 88 95 97 98 98 98 99 99 98 97 97 95 92 90 99 96
97 96 93 94 93 81 55 48 43 46 45 58 65 76 64 69 52 52 56 50 55 46 42 54 60 66 74 80 83 87 92 93 92 90 94 95 93 92 87 80 76 77 81
96 97 92 86 65 91 92 60 43 46 44 50 76 84 97 43 42 55 47 47 47 55 65 79 50 74 84 83 68 65 60 63 72 80 86 90 94 95 95 94 93 92 92
56 54 64 60 40 37 37 33 32 34 45 59 82 63 82 42 44 53 56 55 60 54 41 46 41 45 48 55 58 60 61 69 84 89 88 81 84 91 91 90 92 91 92
45 42 37 37 36 50 37 32 36 45 42 48 49 70 68 59 58 54 46 50 57 51 49 52 53 51 49 51 56 62 70 80 80 82 85 86 89 92 94 96 94 91 95
60 54 52 52 46 46 56 61 51 60 63 61 58 46 48 48 46 54 51 55 55 55 53 54 50 50 51 50 55 60 75 82 69 61 66 64 74 90 95 96 96 95 96
72 76 78 74 55 58 54 53 54 54 50 48 49 50 47 49 52 52 55 54 49 51 50 45 46 52 54 54 56 61 94 100 79 91 53 58 59 63 63 68 72 78 90
72 77 76 72 66 56 54 54 51 51 52 49 48 48 47 44 53 50 50 48 57 68 65 48 41 53 57 48 64 93 100 100 86 100 76 57 56 55 54 54 60 64 70

GFSGL_sfc_rhum_072.txt.gz
RH
68 76 77 72 72 76 76 74 70 72 72 70 65 71 72 76 81 88 86 85 86 84 84 83 82 84 94 95 96 97 97 98 98 99 96 97 95 91 91 86 83 86 88
66 74 74 74 70 72 72 72 72 75 72 71 68 68 69 72 76 71 70 70 72 74 74 78 79 83 85 91 96 96 97 98 99 99 99 99 98 93 91 90 83 70 83
64 68 73 72 72 77 75 71 71 71 71 65 68 70 74 69 69 67 67 70 67 70 71 74 79 80 86 90 93 97 97 99 98 99 99 99 98 93 92 91 87 84 75
59 65 70 71 74 71 74 72 73 72 71 69 69 70 70 71 65 66 64 66 70 68 67 73 74 82 90 89 91 93 96 97 98 96 98 99 98 98 91 92 89 82 88
66 65 66 72 73 76 73 70 72 73 69 74 73 72 69 69 63 79 65 66 70 72 70 69 81 85 93 94 90 94 94 88 91 94 98 99 98 98 92 88 86 81 86
66 67 67 68 73 75 76 71 73 72 72 73 74 75 73 79 81 78 77 75 83 71 75 72 83 86 89 90 90 95 91 89 89 96 93 95 94 90 88 83 82 80 83
63 61 67 71 74 77 74 73 72 79 79 79 79 77 79 77 78 77 80 73 79 81 73 74 64 62 79 79 89 91 91 91 86 87 90 90 92 88 84 87 90 85 87
67 65 68 71 74 79 77 78 81 82 84 85 83 81 82 85 87 88 85 74 77 85 76 71 74 76 83 77 81 82 85 85 90 79 88 88 85 84 81 90 91 94 91
67 72 71 70 73 75 78 82 83 90 88 85 83 84 82 90 98 94 88 79 79 86 84 76 78 83 84 83 81 85 85 88 92 91 93 93 88 88 84 88 93 98 97
69 72 70 72 74 76 78 83 88 88 87 73 78 78 86 88 99 100 95 82 91 96 94 83 76 80 87 84 84 91 90 87 83 87 90 91 91 87 89 84 84 89 84
74 76 74 74 77 78 83 87 90 87 81 83 81 82 83 84 94 100 100 80 88 97 96 98 95 88 92 93 96 88 85 84 79 82 82 84 87 88 84 86 88 90 92
80 78 81 79 67 73 85 89 85 85 85 85 85 83 76 88 98 98 99 97 92 81 93 96 87 90 92 92 92 83 74 75 86 83 80 82 80 81 81 82 84 85 95
97 96 91 85 84 85 89 90 82 84 76 82 78 75 79 80 85 100 100 100 100 89 79 92 89 86 89 89 88 81 76 71 72 68 68 75 71 70 74 81 81 88 87
96 98 98 94 94 93 95 95 89 77 76 74 77 82 90 84 87 83 82 89 98 91 88 83 85 82 84 80 79 80 72 68 67 68 66 70 71 76 75 78 80 77 77
96 98 98 94 95 93 94 93 72 92 81 74 74 68 71 82 89 96 93 91 95 98 95 91 93 84 82 79 77 73 72 71 63 65 59 59 74 80 76 72 73 68 68
94 93 91 86 92 90 95 91 99 100 100 99 100 74 80 94 100 100 100 100 100 100 97 98 98 98 99 98 99 96 89 75 81 86 78 70 95 97 98 96 86 72 69
92 90 93 94 92 92 92 80 68 81 100 99 100 100 96 99 100 100 100 100 100 99 85 85 96 98 97 98 98 99 99 99 98 98 98 98 97 98 98 98 98 98 92
96 98 97 96 96 96 70 59 70 61 70 64 94 89 99 100 100 100 100 98 78 90 75 74 84 94 97 98 97 98 97 98 99 98 97 99 99 99 100 99 98 98 98
97 98 98 93 90 90 72 58 52 64 67 72 70 90 94 100 100 100 100 75 64 66 82 81 82 79 87 92 94 94 92 94 98 98 98 98 98 99 98 97 96 99 97
98 98 99 98 97 88 80 80 86 84 91 89 78 65 75 84 74 71 74 71 65 62 72 87 86 88 79 82 83 86 82 84 84 82 86 85 83 89 91 88 84 85 81
84 81 88 94 95 98 98 98 96 97 89 90 98 99 99 82 63 64 63 72 63 64 64 72 57 75 70 87 88 91 90 84 84 85 86 87 91 91 90 94 93 92 91
70 79 94 86 77 91 95 92 89 91 85 87 89 72 79 54 53 57 62 59 58 59 57 59 53 55 59 65 70 69 68 70 75 85 90 92 93 96 97 97 95 95 95
52 52 50 52 63 69 62 53 57 56 59 61 58 58 55 58 61 60 55 56 58 59 59 56 53 52 53 60 63 65 64 69 66 67 76 82 83 88 90 94 94 95 96
69 63 59 56 59 58 62 66 65 70 63 55 54 60 58 58 55 59 55 57 58 55 57 53 56 54 58 57 59 62 76 86 71 67 72 70 66 72 76 81 83 80 84
74 75 66 60 69 63 58 60 61 57 56 62 58 59 53 55 58 56 56 58 62 60 58 62 73 66 60 62 67 67 94 100 91 98 76 73 68 70 64 57 66 64 68
66 68 65 58 59 57 60 57 56 56 54 51 50 49 51 49 53 54 61 63 58 59 55 47 47 44 47 48 67 92 99 98 83 99 82 71 68 72 77 72 63 63 70

GFSGL_sfc_rhum_075.txt.gz
RH
88 92 93 94 91 90 94 91 84 81 78 76 76 84 88 89 90 93 93 93 94 94 95 94 92 92 96 97 98 98 99 97 99 100 99 98 96 94 95 93 94 98 98
83 84 86 89 88 92 90 86 82 86 80 78 74 81 82 83 86 83 78 80 88 90 85 87 84 88 89 94 97 96 98 98 99 99 100 100 98 96 94 94 84 84 98
84 81 84 84 82 91 88 85 85 84 81 81 78 79 80 79 76 74 72 72 72 79 75 74 79 86 91 94 94 97 99 99 99 99 100 99 99 97 97 94 90 94 86
75 81 86 86 85 86 86 84 86 82 85 85 80 73 76 75 75 71 72 71 74 75 75 67 86 94 95 96 96 97 99 99 99 99 99 100 99 98 95 96 93 98 99
72 78 80 80 87 87 84 85 81 82 81 77 75 76 74 80 68 78 69 74 76 78 78 88 89 91 93 95 98 98 98 98 98 98 99 100 99 100 98 94 92 98 96
70 73 85 81 85 88 87 86 84 85 85 85 84 84 89 82 82 78 78 85 84 83 83 90 89 91 93 91 94 94 94 91 96 98 99 98 97 92 91 89 92 96 96
70 74 87 82 85 87 86 81 88 85 87 88 89 88 89 88 83 80 78 84 84 86 83 89 83 81 89 94 93 94 94 92 88 90 94 95 94 89 86 90 91 83 93
87 83 84 84 81 86 78 76 87 90 91 94 93 92 93 89 86 86 83 82 88 86 79 79 88 91 93 94 94 96 94 92 93 86 88 92 86 87 82 86 94 95 92
83 78 77 74 82 87 81 88 90 94 94 95 94 94 95 95 94 92 88 88 91 90 88 77 82 88 88 88 90 93 95 96 96 94 94 94 91 89 83 88 95 98 98
80 81 82 85 88 88 84 88 92 95 95 95 93 92 95 96 99 97 96 96 94 96 94 90 84 81 87 87 93 96 96 96 96 94 94 95 96 94 91 84 85 90 89
94 94 96 98 95 96 93 93 95 95 96 96 93 94 94 96 99 100 100 97 98 98 98 96 96 89 90 91 87 93 89 84 94 95 97 98 98 94 86 86 88 84 92
96 94 95 98 98 96 96 96 93 98 97 97 96 92 96 98 99 100 100 99 95 98 98 97 91 94 92 92 94 89 79 76 87 97 98 99 99 99 93 93 92 93 96
92 96 94 95 94 96 92 92 97 94 98 98 96 94 98 99 100 100 100 99 100 97 98 98 89 92 93 91 92 83 76 81 81 80 82 93 97 83 91 94 95 95 96
96 92 93 96 96 98 98 96 98 98 98 98 97 97 99 99 99 99 99 98 99 99 99 98 95 91 87 86 86 85 77 81 75 77 75 75 83 91 98 98 98 99 98
97 92 96 97 96 98 99 99 99 98 98 97 97 96 97 100 99 99 99 99 99 99 99 98 99 98 98 97 93 96 89 85 80 72 70 69 71 81 87 87 88 85 85
98 97 99 98 99 98 98 99 100 100 100 99 100 96 99 100 100 100 100 100 100 100 100 98 99 99 99 99 99 98 97 88 90 90 89 87 95 96 95 95 94 94 92
99 99 99 100 99 99 99 99 98 98 100 100 100 98 99 100 100 100 100 100 100 100 98 93 98 98 98 98 99 99 99 99 99 99 99 99 99 98 98 98 98 98 98
97 99 98 98 98 98 98 98 93 89 81 81 98 97 100 100 100 100 100 100 97 100 98 98 98 98 98 98 99 99 99 99 99 99 98 99 99 100 99 100 99 99 99
99 99 99 99 99 99 97 97 96 90 91 90 86 96 99 100 99 99 100 92 91 95 94 97 98 96 94 94 96 96 96 97 97 97 98 98 99 99 99 98 98 100 99
98 97 99 99 99 98 98 98 97 97 97 98 97 97 96 95 90 85 88 89 91 94 93 96 98 98 91 92 93 94 96 96 97 97 91 88 88 92 92 91 93 98 97
95 95 87 96 97 98 98 97 98 98 98 100 99 100 100 95 97 88 82 84 77 70 73 75 78 83 82 92 92 94 90 91 91 94 95 93 97 98 98 98 97 96 95
82 82 96 93 85 92 93 93 97 98 97 98 99 99 98 70 70 71 72 74 74 70 69 65 69 72 76 80 82 75 77 83 91 94 96 97 97 97 97 98 98 97 98
83 79 78 78 90 88 84 94 95 92 89 85 77 67 66 67 69 70 68 73 71 69 69 68 69 73 76 79 81 88 95 97 96 93 97 96 92 90 91 94 96 95 95
89 81 79 81 81 80 76 76 81 81 72 67 68 69 68 68 65 66 68 78 78 79 78 75 71 73 77 79 82 89 96 95 98 98 97 96 96 89 81 77 80 73 78
90 90 88 90 87 70 70 70 68 69 71 73 76 74 74 74 72 75 81 82 82 86 86 73 68 68 68 66 68 75 97 98 85 94 78 83 92 88 86 85 78 75 78
79 82 77 73 72 72 74 71 67 65 64 66 70 75 76 78 80 82 84 83 83 83 78 65 61 63 67 70 71 81 86 86 77 86 80 77 85 82 82 89 83 85 87

GFSGL_sfc_rhum_078.txt.gz
RH
92 95 96 96 95 94 95 93 92 91 88 88 88 94 95 95 96 97 96 96 96 96 96 96 96 96 98 99 98 99 99 98 99 100 99 99 99 98 96 95 93 97 98
90 95 96 96 96 96 95 95 91 86 86 82 86 91 90 91 94 93 93 90 94 95 94 95 93 93 92 95 98 97 98 98 98 99 99 100 98 97 96 98 88 94 99
91 96 96 96 97 96 95 94 90 90 86 86 86 88 90 90 92 91 84 85 85 91 90 90 89 91 94 96 97 98 99 99 99 99 100 100 100 98 97 98 97 98 95
91 93 94 95 92 90 93 94 92 90 86 87 88 82 83 85 84 78 82 79 79 81 84 81 91 92 94 95 97 99 99 99 99 99 100 99 100 99 93 97 98 96 99
85 89 90 87 87 90 92 93 90 89 87 87 88 78 76 77 77 80 77 77 79 82 85 89 93 90 90 93 98 99 99 99 99 99 100 100 100 100 98 95 96 99 99
78 82 82 86 90 91 92 94 88 87 90 90 84 79 90 82 84 88 86 86 87 87 90 92 93 93 94 95 97 96 95 95 98 99 99 98 97 93 96 90 95 99 99
78 75 84 83 90 90 89 88 86 88 91 92 92 92 93 91 85 82 83 89 84 90 90 96 88 81 94 96 97 96 92 91 88 89 96 96 96 93 91 92 90 94 94
83 83 89 90 94 96 95 94 90 88 93 95 94 93 95 95 88 85 84 82 87 86 82 87 92 94 94 94 97 96 97 95 90 84 92 97 96 85 85 87 94 96 92
87 90 91 93 96 96 96 94 96 97 96 95 95 95 96 96 92 90 89 90 89 87 87 86 86 93 96 95 94 97 96 96 99 96 94 95 92 92 89 93 95 99 99
98 95 94 91 97 92 94 93 98 97 96 97 97 96 95 96 99 96 94 97 93 96 95 89 91 83 91 93 96 97 97 97 97 96 96 98 96 96 92 90 94 89 88
97 96 97 97 92 88 85 92 96 98 98 96 97 97 97 96 99 100 100 98 97 98 98 97 96 93 91 92 97 96 96 96 97 97 98 98 99 98 98 98 96 88 90
95 96 96 96 97 96 93 93 88 91 98 98 98 98 98 98 99 100 100 99 97 98 98 97 92 98 95 95 93 94 85 87 98 98 98 99 99 100 99 97 97 97 97
92 94 96 97 98 97 96 96 96 95 98 98 99 99 99 100 100 100 100 100 99 99 98 99 92 96 98 96 90 87 82 89 89 94 98 98 98 98 98 98 98 98 97
94 92 96 97 99 99 99 99 98 98 97 99 99 99 99 99 100 99 99 98 99 99 100 99 88 88 90 90 89 91 90 91 86 84 84 84 89 93 98 99 99 99 99
95 93 94 97 98 99 99 99 99 97 99 98 97 98 99 99 99 100 99 99 99 100 99 99 100 99 98 97 96 94 95 91 90 88 80 70 70 84 90 94 96 99 99
99 99 99 99 99 99 100 100 100 100 100 100 100 99 100 100 100 100 100 100 100 100 100 100 99 99 99 99 99 99 97 92 91 90 90 92 94 96 96 97 95 92 89
99 99 100 100 100 100 99 99 99 100 100 100 100 100 100 100 100 100 100 100 100 100 98 95 97 98 98 99 99 99 99 100 99 99 99 99 99 99 99 98 98 98 98
98 99 99 99 99 99 100 99 98 98 94 94 98 99 100 100 100 100 100 100 99 100 98 98 99 98 99 99 98 99 99 99 99 99 99 99 99 99 99 99 99 99 99
98 99 99 98 99 99 98 98 98 97 97 97 97 99 99 100 100 100 100 96 96 98 98 98 98 98 98 98 98 98 98 98 97 95 97 97 97 97 98 97 96 100 100
96 92 98 99 99 98 98 97 98 98 98 99 99 98 99 96 91 92 97 95 98 98 99 99 99 98 96 97 98 99 99 98 98 97 97 94 92 93 94 91 91 94 95
96 97 88 96 98 98 97 99 98 98 98 98 100 100 100 98 98 97 89 89 87 89 84 82 85 86 83 90 87 97 94 87 96 98 99 98 98 98 98 99 99 98 98
97 96 97 94 81 92 93 94 98 97 98 98 99 99 100 98 97 83 78 80 76 73 76 78 82 86 88 88 92 94 94 96 92 97 98 97 96 95 96 96 96 95 96
96 93 92 95 95 94 91 96 98 98 98 98 96 98 82 87 89 87 81 73 77 77 79 78 81 87 89 93 98 98 98 99 98 97 97 97 96 94 91 90 89 88 87
96 95 95 94 92 94 91 94 93 89 80 79 80 74 73 71 71 72 69 72 75 78 79 81 83 84 76 76 79 82 84 89 78 77 79 84 95 96 93 90 90 82 80
94 93 84 93 90 87 82 83 81 73 76 75 74 74 77 73 76 76 77 85 85 84 84 83 71 64 64 65 67 72 87 92 74 82 74 76 86 86 92 92 90 90 86
80 80 79 76 75 77 79 74 72 71 73 79 76 78 82 77 86 86 89 90 93 89 77 72 69 68 65 61 61 77 86 86 76 86 77 81 67 60 74 83 86 91 91

GFSGL_sfc_rhum_084.txt.gz
RH
94 95 95 94 93 93 93 92 91 89 90 90 92 92 92 90 92 94 94 94 95 94 94 93 91 90 96 99 99 99 99 99 99 100 99 98 99 97 98 93 91 92 92
92 95 94 93 93 94 94 92 92 91 89 89 89 91 91 92 93 95 95 94 94 93 90 91 89 92 94 95 99 98 100 99 99 99 99 100 99 99 99 98 90 91 94
90 93 95 94 94 95 94 93 93 91 90 86 88 90 89 90 92 92 92 89 90 90 91 93 91 91 95 96 96 97 99 99 99 99 99 100 100 99 100 99 99 97 89
88 94 95 94 95 94 94 93 93 91 89 90 88 87 88 89 90 88 90 91 89 86 89 90 88 88 90 91 95 96 98 98 99 99 100 100 99 99 99 99 100 96 95
95 96 97 94 94 95 96 95 94 96 95 94 90 90 87 87 81 90 88 89 89 85 85 86 85 85 90 91 92 97 96 95 98 99 100 100 100 100 99 99 100 99 96
88 88 92 96 97 98 97 97 96 94 94 94 94 90 90 83 88 90 88 85 91 86 89 88 87 88 90 93 96 94 95 94 98 98 98 97 98 98 99 99 99 100 96
87 87 88 91 98 97 95 94 94 95 94 93 92 94 94 91 94 92 92 82 84 87 90 92 89 85 87 84 98 96 98 94 92 89 95 93 92 96 97 99 99 97 98
82 82 92 93 95 97 95 94 95 96 94 94 93 92 93 91 94 92 92 87 86 87 84 88 91 89 88 87 93 94 93 91 92 83 89 88 86 95 96 96 97 98 97
81 80 82 90 98 96 94 96 96 96 96 95 91 93 91 90 97 92 92 86 85 86 85 85 87 87 94 98 92 95 95 94 97 98 94 95 95 97 96 98 98 99 100
97 97 97 98 97 97 94 95 95 97 94 93 92 92 90 92 100 94 93 89 90 95 94 91 96 88 100 99 92 94 94 89 92 94 93 95 94 92 95 86 91 98 99
97 95 96 97 98 96 96 96 93 92 95 96 94 95 94 91 93 100 98 94 90 96 96 96 96 98 100 100 99 93 94 93 96 90 89 92 91 88 84 85 88 86 92
97 95 94 94 96 97 98 98 95 96 96 95 98 97 97 95 100 99 98 99 96 94 95 96 92 95 98 100 94 100 100 95 95 97 97 92 92 94 91 85 88 84 89
97 97 95 92 93 94 97 97 98 99 99 98 98 98 97 96 98 100 100 100 98 93 92 96 100 100 98 94 94 92 91 77 86 94 96 95 94 90 93 93 93 92 91
96 96 98 98 98 96 98 99 99 98 98 98 98 98 98 99 100 99 99 99 100 95 99 93 92 93 94 88 85 81 75 74 73 73 76 77 72 75 86 95 97 96 96
96 96 97 98 99 99 99 100 99 98 99 98 98 98 99 99 99 100 100 99 99 98 97 96 96 91 89 89 88 84 84 86 95 86 70 68 65 69 71 83 91 95 98
95 96 96 98 99 99 99 100 99 100 100 100 100 100 99 100 100 100 100 100 100 100 99 98 98 95 95 96 96 98 98 93 82 84 89 86 93 94 89 95 91 86 84
98 97 98 99 99 99 99 99 99 100 99 99 100 100 100 100 100 100 100 100 100 100 95 93 97 98 98 98 97 99 99 100 97 98 99 99 99 99 99 99 99 99 99
94 99 98 98 98 99 99 99 99 99 99 100 100 100 100 100 100 100 100 100 100 100 96 97 97 98 98 99 99 99 99 99 98 98 98 98 98 97 97 96 98 98 98
96 97 96 97 98 99 99 98 98 97 99 100 99 100 99 100 100 100 100 98 98 97 96 98 97 94 95 96 96 96 96 94 95 94 96 94 92 91 92 90 86 98 94
96 94 96 98 98 98 98 96 98 99 99 99 99 99 99 98 99 99 98 97 94 98 98 97 98 96 90 90 92 94 92 90 91 83 86 83 84 79 76 84 84 89 92
94 94 93 92 94 96 97 98 97 97 97 98 99 100 100 97 99 99 99 99 98 98 98 98 90 88 88 88 85 93 82 81 84 83 79 80 81 82 84 85 83 78 78
91 90 93 88 86 89 90 95 98 95 96 98 99 100 100 98 98 98 98 98 99 99 98 97 91 78 72 74 78 80 80 85 83 81 86 86 83 84 81 78 77 72 67
87 85 86 85 87 94 86 90 95 97 98 98 99 99 98 99 98 98 97 96 96 95 91 86 78 75 72 74 74 72 72 77 77 76 78 80 81 79 78 79 76 76 74
87 85 84 85 86 88 85 89 98 100 98 98 98 97 93 97 96 95 97 95 92 86 72 70 68 64 62 57 58 55 55 56 54 54 65 72 71 76 72 76 77 74 72
80 81 78 87 88 85 81 83 93 91 90 93 93 94 93 94 94 92 82 75 68 60 57 55 53 55 56 56 55 52 74 87 62 73 62 62 62 71 67 64 67 62 56
79 81 82 85 89 92 91 91 88 86 93 96 94 96 95 96 96 85 78 70 57 54 55 55 56 55 51 46 49 74 85 86 72 80 45 42 42 41 40 42 43 39 43

GFSGL_sfc_rhum_087.txt.gz
RH
80 77 78 75 74 78 78 74 74 75 76 75 76 75 75 76 76 78 78 75 78 76 74 76 77 77 63 68 84 94 93 96 97 98 97 94 98 98 98 90 87 81 80
76 79 78 75 73 77 77 74 73 76 73 71 72 74 72 71 74 78 76 74 79 80 77 78 74 64 75 74 67 81 80 83 83 95 98 99 99 98 98 99 99 93 92
81 78 74 71 74 81 78 75 74 75 72 66 71 73 72 71 74 75 75 71 72 72 73 76 77 77 81 82 79 75 71 76 79 83 82 94 97 99 99 99 99 99 98
80 77 84 77 76 78 79 77 76 76 74 72 72 71 69 68 68 67 72 73 72 69 73 72 72 75 79 80 76 79 88 85 88 93 95 94 94 98 98 99 100 100 98
83 84 91 90 81 84 85 79 76 76 75 73 72 70 68 66 58 67 68 69 71 70 70 69 68 72 84 81 65 76 89 80 85 92 98 99 100 100 99 99 100 100 99
90 87 86 91 88 88 87 89 81 82 81 80 77 72 71 61 79 89 76 65 70 71 72 68 65 81 82 94 93 92 80 77 84 80 91 92 97 97 99 99 97 98 99
80 89 84 88 89 91 91 86 90 87 83 83 79 77 75 72 90 93 92 63 66 67 71 70 63 53 78 66 93 98 94 94 90 82 85 81 84 91 94 98 98 94 95
78 85 78 82 85 88 92 92 92 92 89 84 79 78 78 71 94 95 93 71 69 68 67 68 70 71 72 68 72 81 85 83 82 71 77 76 77 79 91 93 96 98 99
76 82 89 87 89 92 94 92 93 95 93 89 86 80 80 77 99 97 92 72 68 71 66 67 67 69 86 94 74 86 85 79 89 97 94 94 94 97 91 96 98 99 100
94 88 82 89 95 94 89 92 96 95 94 93 84 82 84 78 98 99 90 61 68 63 74 74 92 72 98 100 81 74 81 83 75 78 78 86 89 89 97 83 84 94 93
91 86 85 85 93 97 97 98 98 97 94 91 85 81 80 79 79 100 98 68 69 80 80 70 58 98 100 100 97 89 82 74 84 79 69 69 71 73 72 78 81 77 78
89 89 86 83 82 87 96 96 96 96 96 95 93 87 70 78 96 96 100 93 89 86 83 82 67 100 100 100 94 99 100 90 68 63 61 62 68 71 64 69 76 78 77
93 94 92 89 81 82 84 85 77 84 86 85 78 74 69 64 67 100 100 98 99 90 84 93 97 100 100 99 100 100 99 67 69 73 65 64 65 73 75 80 77 82 82
88 90 93 95 96 90 81 81 89 89 93 95 94 90 77 70 78 94 99 98 100 100 100 98 82 82 85 78 74 76 56 56 57 58 67 76 65 61 76 76 82 84 85
78 76 86 88 93 95 96 97 96 94 97 87 86 84 78 87 97 100 100 99 99 100 98 78 74 73 70 65 60 58 56 56 54 54 54 60 52 53 55 56 60 74 65
64 66 76 86 88 92 92 95 99 100 100 100 100 99 89 99 100 100 100 100 100 100 99 95 86 75 71 67 69 69 78 80 73 68 61 64 64 80 77 73 69 63 66
72 72 71 74 80 93 93 98 98 100 99 99 100 100 100 100 100 100 100 100 100 100 98 99 97 89 85 92 93 91 98 96 93 90 94 93 96 94 79 87 93 99 99
70 89 66 63 71 88 96 97 96 97 97 98 99 100 100 100 100 100 100 100 100 100 98 98 99 98 98 98 98 98 96 97 94 96 95 96 94 90 90 87 90 89 88
64 60 64 63 67 85 82 91 83 88 94 95 96 99 99 100 100 100 100 98 98 99 99 99 99 98 98 96 95 91 89 90 84 81 80 71 69 68 70 68 71 87 82
66 85 81 67 66 67 71 91 86 92 94 96 98 99 99 98 98 98 99 99 99 99 99 98 97 94 92 87 85 80 74 75 72 65 64 65 63 57 61 65 66 67 69
58 57 82 57 55 64 66 96 96 94 91 97 97 99 100 99 99 99 99 99 98 99 98 97 94 89 80 78 77 75 70 69 68 66 65 64 62 59 60 66 64 57 54
57 55 56 56 57 57 62 81 91 89 91 90 98 99 100 86 98 98 98 98 99 99 98 98 98 94 80 76 76 70 66 64 62 61 59 52 50 49 49 46 44 42 41
55 58 56 55 60 76 61 60 83 96 96 98 98 98 96 97 98 97 97 97 98 98 98 96 93 88 79 70 65 60 57 59 56 52 52 53 51 49 49 48 47 47 46
55 57 58 60 63 63 75 82 88 99 98 98 97 97 98 97 98 97 97 98 98 97 95 84 77 63 61 56 54 51 52 52 54 54 53 49 51 58 49 49 48 50 45
65 66 63 61 61 61 65 81 92 91 89 94 95 95 94 90 92 87 82 86 68 57 52 48 43 45 45 44 42 41 72 81 49 63 47 51 52 57 48 45 48 45 45
65 67 70 73 79 87 73 75 85 92 90 88 88 94 93 97 95 90 60 47 41 39 40 41 44 47 44 40 41 72 88 89 64 74 42 42 41 39 38 40 42 32 34